STARLINK-30893 (58724 NORAD) Tracking and Keplerian Element Data

This shows tracking and keplerian element data for the satellite.

Feedback or suggestion? Click here.




ElementValue
Catalog58724
NameSTARLINK-30893
Epoch Orbit265
Epoch Day13.25002315
Epoch Year2024
RAAN198.7657
Inclination53.1609
Eccentricity0.0001004
Argument of Perigee88.2473
Mean Anonmoly157.4846
Mean Motion15.51422649
Decay Rate-0.01744618
L11 58724U 24002V 24013.25002315 -.01744618 00000+0 -32660-1 0 9992
L22 58724 53.1609 198.7657 0001004 88.2473 157.4846 15.51422649 2659



Live tracking and technical data element details for STARLINK-30893 (NORAD 58724). STARLINK-30893 can be tracked NOW for your location showing map with azimuth and elevation plus other details from your city location.







IsCatalogInMostPopularTable: catalog: 58724, numindb: 27
Update: records affected: 1



GetName: 58724 STARLINK-30893

Hit Count: updated at: Wed, 17 Apr 2024 03:36:45 GMT